Location: Zagreb
(45.8000°N, 16.0000°E)
Time: 13:56:11
(UTC+02:00)

Transit 2A - Pass Details

Date: 14 August 2022
Orbit: 601 x 956 km, 66.7° (Epoch: 25 September)

Event Time Altitude Azimuth Distance (km) Brightness Sun altitude
Rises 19:20:23 0° 334° (NNW) 2,861 9.6 6.8°
Reaches altitude 10° 19:22:54 10° 347° (NNW) 1,956 8.6 6.3°
Maximum altitude 19:26:38 27° 46° (NE) 1,188 6.8 5.7°
Drops below altitude 10° 19:30:28 10° 105° (ESE) 2,012 7.6 5.1°
Sets 19:33:06 0° 117° (ESE) 2,960 8.4 4.6°
